Flag for Switzerland Weather past 2 weeks in Pratteln, Basel-Land, Switzerland

Now
61 °F

Passing clouds.


Feels Like: 61 °F
Forecast: 55 / 76 °F
Wind: 1 mph from North

Location: Bale-Mulhouse

Current Time: Jul 31, 2014 at 7:45:29 AM

Latest Report: Jul 31, 2014 at 7:00 AM


Visibility: 4 mi

Pressure: 30.01 "Hg

Humidity: 100%

Dew point: 61 °F

Location of PrattelnLocation

Historic Weather in Pratteln — Graph

°F

Pratteln temperature yesterday

Maximum temperature yesterday: 72 °F (at 4:30 PM)
Minimum temperature yesterday: 61 °F (at 3:30 AM)
Average temperature yesterday: 65 °F

Past Weeks' High & Low Weather Summary

 TemperatureHumidityPressure
High93 °F (Jul 18, 4:35 PM)100% (Jul 16, 7:00 AM)30.18 "Hg (Jul 16, 7:00 AM)
Low54 °F (Jul 16, 6:00 AM)20% (Jul 18, 5:00 PM)29.80 "Hg (Jul 29, 4:00 PM)
Average69 °F79%29.96 "Hg
* Reported Jul 16 6:00 AM — Jul 31 6:30 AM, Pratteln, Weather by CustomWeather, © 2014

Note: Actual official high and low records may vary slightly from our data, if they occured in-between our weather recording intervals... More about our weather records

Advertising

Pratteln weather history for previous 24 hours

 ConditionsComfort  
Time TempWeatherWind HumidityBarometerVisibility
6:30 AM
Jul 31
61 °FFog.3 mph94%30.01 "Hg2 mi
6:00 AM61 °FPassing clouds.2 mph100%30.01 "Hg3 mi
5:30 AM61 °FPartly cloudy.3 mph100%30.01 "Hg4 mi
5:00 AM63 °FPassing clouds.1 mph94%30.01 "Hg4 mi
4:30 AM63 °FPassing clouds.2 mph100%30.01 "HgN/A
4:00 AM64 °FOvercast.2 mph94%29.98 "Hg6 mi
3:30 AM64 °FOvercast.No wind94%29.98 "Hg5 mi
3:00 AM64 °FOvercast.2 mph94%30.01 "HgN/A
2:30 AM64 °FPassing clouds.1 mph94%30.01 "HgN/A
2:00 AM64 °FPartly cloudy.1 mph94%30.01 "HgN/A
1:30 AM64 °FPassing clouds.3 mph94%30.01 "Hg4 mi
1:00 AM64 °FPartly cloudy.3 mph100%29.98 "Hg4 mi
12:30 AM64 °FMostly cloudy.2 mph100%29.98 "Hg4 mi
12:00 AM66 °FPassing clouds.3 mph94%29.98 "Hg4 mi
11:30 PM
Jul 30
66 °FPartly cloudy.3 mph94%29.98 "Hg6 mi
11:00 PM66 °FPartly cloudy.No wind94%29.98 "Hg6 mi
10:30 PM66 °FPartly cloudy.No wind94%29.98 "Hg6 mi
10:00 PM66 °FPartly sunny.1 mph94%29.98 "HgN/A
9:30 PM66 °FPartly sunny.2 mph94%29.95 "HgN/A
9:00 PM66 °FPartly sunny.1 mph94%29.95 "HgN/A
8:30 PM66 °FPartly sunny.1 mph94%29.95 "HgN/A
8:00 PM66 °FPartly sunny.2 mph100%29.92 "HgN/A
7:30 PM66 °FRain showers. Broken clouds.5 mph94%29.92 "Hg2 mi
7:00 PM66 °FRain showers. Broken clouds.5 mph94%29.92 "Hg1 mi
6:30 PM66 °FSprinkles. Partly sunny.3 mph94%29.92 "HgN/A
6:00 PM66 °FSprinkles. Broken clouds.3 mph94%29.92 "Hg4 mi
5:30 PM66 °FRain showers. Fog.6 mph94%29.92 "Hg2 mi
5:00 PM70 °FSprinkles. Cloudy.8 mph83%29.92 "HgN/A
4:30 PM72 °FMostly cloudy.6 mph78%29.89 "HgN/A
4:00 PM70 °FLight rain. Mostly cloudy.6 mph83%29.89 "HgN/A
3:30 PM68 °FLight rain. Mostly cloudy.5 mph88%29.89 "HgN/A
3:00 PM68 °FLight rain. Mostly cloudy.7 mph88%29.89 "Hg6 mi
2:00 PM68 °FLight rain. Mostly cloudy.7 mph88%29.89 "Hg6 mi
1:30 PM68 °FLight rain. Mostly cloudy.3 mph83%29.89 "HgN/A
1:00 PM68 °FMostly cloudy.2 mph83%29.89 "HgN/A
12:30 PM68 °FMostly cloudy.2 mph78%29.86 "HgN/A
12:00 PM68 °FMostly cloudy.5 mph78%29.86 "HgN/A
11:30 AM66 °FMostly cloudy.5 mph88%29.86 "HgN/A
11:00 AM64 °FCloudy.5 mph88%29.86 "HgN/A
10:30 AM64 °FMostly cloudy.5 mph88%29.86 "HgN/A
10:00 AM63 °FCloudy.2 mph88%29.86 "HgN/A
9:30 AM63 °FCloudy.1 mph88%29.86 "Hg6 mi
9:00 AM63 °FLight rain. Cloudy.2 mph88%29.86 "Hg4 mi
8:30 AM61 °FLight rain. Mostly cloudy.2 mph94%29.83 "Hg4 mi
8:00 AM63 °FLight rain. Mostly cloudy.3 mph88%29.83 "Hg6 mi
7:30 AM63 °FMostly cloudy.2 mph88%29.83 "HgN/A
7:00 AM61 °FMostly cloudy.2 mph94%29.83 "HgN/A
Weather by CustomWeather, © 2014

See weather overviewHow to use our weather pages